Probability
45 45 45 48 52 48 52 48 48 48 48 48 48 48 52 45 42 45 32 42 29 29 26 26 26 29 29 19 23 23 23 13 6 13 16 26 16 16 10 13 10 6 3
48 48 48 52 48 48 45 45 45 48 52 52 48 42 42 45 45 39 35 29 29 29 26 29 32 19 19 19 19 23 26 19 16 13 13 19 16 13 16 13 10 6 10
45 45 45 48 48 45 45 45 48 48 48 45 45 42 42 42 39 42 35 39 32 35 29 29 32 26 19 23 23 16 16 10 19 19 16 19 23 16 16 13 6 10 6
42 42 45 48 48 45 45 45 45 45 45 45 45 45 45 39 35 39 35 39 39 39 26 26 29 26 23 23 19 19 16 13 13 13 13 13 16 19 19 10 6 10 10
45 42 45 45 45 42 45 45 42 42 39 42 42 39 32 26 23 32 32 32 32 35 32 23 29 23 16 13 6 16 16 13 13 13 13 10 10 13 13 13 3 10 10
45 42 42 39 42 48 48 45 45 45 42 45 42 39 32 23 16 16 23 26 32 35 39 32 23 16 6 6 3 3 3 13 13 13 13 6 6 3 6 3 6 10 10
35 32 32 39 35 42 39 39 45 45 39 45 45 42 35 32 19 13 10 23 26 35 39 32 23 13 13 13 6 0 0 0 3 10 6 3 6 6 6 3 3 6 0
29 26 26 26 29 32 42 42 39 39 42 42 39 35 35 29 13 6 6 10 26 35 35 29 29 23 16 16 13 10 6 3 3 0 0 0 3 10 10 6 6 3 3
23 26 23 23 23 26 29 39 35 39 42 42 35 32 32 29 6 3 0 16 32 32 35 29 26 26 16 3 10 13 13 3 3 0 0 0 0 0 3 3 0 0 0
19 23 19 19 19 23 29 29 29 39 39 35 32 32 35 26 6 0 0 16 29 32 32 26 19 16 3 0 6 13 16 6 3 0 0 0 0 0 0 0 0 0 0
23 19 19 19 19 19 19 35 26 26 29 29 29 29 26 26 6 0 0 16 16 19 19 19 10 3 0 0 3 3 3 0 0 3 0 0 3 3 3 0 0 0 0
23 19 19 19 19 19 26 26 23 29 29 26 26 29 26 19 13 3 0 3 10 19 16 16 10 0 0 0 0 0 0 0 0 0 0 3 3 3 3 3 0 3 3
23 19 23 19 23 19 16 16 19 16 19 23 26 29 23 23 13 6 0 0 0 6 13 3 3 0 0 0 0 0 0 0 3 0 3 3 3 3 0 3 3 3 3
23 19 19 19 16 16 19 16 16 16 19 19 19 23 19 16 19 10 0 0 0 0 0 0 0 0 0 0 0 0 0 0 0 6 3 3 3 3 6 0 0 6 6
16 16 13 13 16 16 16 16 16 16 16 19 19 19 19 19 13 10 10 10 6 0 0 3 3 6 0 0 0 0 0 0 0 6 3 0 0 3 0 0 0 6 3
16 16 13 13 10 13 13 13 3 6 0 3 6 6 10 6 0 0 0 0 3 3 3 3 3 3 0 3 6 6 3 3 0 0 0 0 0 3 0 0 3 3 3
13 16 13 13 13 13 13 13 6 3 0 0 0 0 3 0 0 0 0 0 0 0 0 3 3 3 3 3 10 6 3 3 3 0 0 0 0 0 0 0 0 0 0
10 6 10 13 13 13 13 13 10 6 3 3 0 0 0 0 0 0 0 0 0 0 0 3 3 3 3 10 16 10 6 6 3 6 6 6 6 3 0 0 0 0 0
6 6 10 10 10 16 16 13 6 6 6 3 3 0 0 0 0 0 0 0 3 3 0 3 3 3 3 3 6 10 6 6 3 6 6 6 6 6 3 0 0 0 0
10 6 6 6 6 13 13 10 3 3 3 3 6 3 0 0 0 0 0 0 0 3 3 3 3 6 3 6 6 6 6 3 3 6 6 6 6 6 6 3 3 0 0
6 6 3 6 6 6 10 10 10 6 3 3 3 3 0 0 0 0 0 0 0 0 3 3 6 3 3 3 3 3 3 3 6 6 6 6 6 6 6 6 6 3 0
3 3 3 3 3 6 6 6 10 6 6 6 6 3 0 3 6 0 0 0 3 3 3 0 0 0 3 3 3 3 3 0 3 6 6 6 6 6 6 6 6 6 3
3 3 3 3 0 0 3 6 6 6 6 6 6 6 3 3 6 6 6 6 6 3 3 3 3 3 3 6 6 6 6 3 3 3 3 3 6 6 6 6 6 3 3
3 0 3 0 3 3 3 3 3 3 3 3 6 6 6 6 6 6 6 3 3 3 3 3 3 3 3 3 6 6 3 3 3 3 3 3 3 0 3 3 3 3 3
0 0 3 3 3 3 3 3 3 3 3 3 3 3 3 6 6 6 6 3 3 3 3 3 3 3 3 3 3 3 3 0 0 3 0 0 0 0 3 6 6 3 6
0 0 3 3 3 3 3 3 3 3 3 3 3 3 3 3 3 3 3 3 3 3 3 3 3 3 3 3 3 3 0 0 0 0 0 0 0 0 0 3 3 3 3
Height
5828 5829 5830 5830 5830 5830 5830 5830 5830 5830 5830 5830 5829 5829 5828 5828 5827 5827 5826 5826 5825 5824 5824 5824 5823 5823 5823 5822 5822 5821 5820 5820 5821 5821 5820 5819 5819 5818 5818 5817 5816 5815 5815
5823 5823 5824 5824 5825 5825 5825 5825 5825 5825 5824 5824 5824 5823 5823 5822 5822 5821 5820 5820 5819 5819 5818 5818 5818 5817 5817 5816 5816 5815 5815 5815 5815 5815 5814 5813 5813 5812 5811 5811 5811 5810 5809
5815 5816 5817 5818 5819 5819 5819 5819 5819 5819 5818 5818 5817 5817 5817 5816 5816 5815 5814 5814 5813 5813 5812 5811 5811 5811 5810 5809 5809 5809 5809 5809 5808 5808 5808 5807 5807 5806 5805 5805 5804 5803 5803
5808 5809 5810 5811 5812 5812 5813 5813 5813 5812 5812 5811 5811 5811 5810 5810 5809 5808 5808 5807 5807 5806 5806 5805 5804 5804 5803 5802 5802 5802 5802 5802 5801 5801 5801 5800 5800 5799 5799 5798 5798 5797 5797
5801 5802 5803 5804 5804 5805 5805 5806 5806 5806 5805 5805 5805 5804 5804 5803 5802 5802 5801 5801 5800 5800 5799 5798 5797 5796 5796 5795 5795 5794 5794 5794 5793 5793 5793 5793 5793 5792 5792 5791 5791 5791 5790
5793 5794 5795 5796 5797 5797 5798 5798 5799 5798 5798 5798 5798 5797 5797 5796 5796 5795 5794 5794 5794 5793 5792 5791 5790 5789 5788 5787 5787 5787 5787 5786 5786 5786 5786 5786 5786 5785 5784 5783 5783 5783 5783
5785 5786 5787 5788 5789 5790 5790 5791 5791 5791 5791 5790 5790 5790 5790 5789 5789 5788 5787 5787 5787 5786 5785 5784 5783 5782 5781 5780 5779 5779 5778 5778 5778 5778 5778 5778 5777 5777 5776 5776 5776 5775 5775
5776 5778 5779 5780 5781 5782 5782 5783 5783 5783 5783 5783 5783 5783 5783 5782 5781 5780 5780 5779 5779 5779 5778 5777 5776 5775 5774 5773 5772 5772 5771 5770 5770 5770 5770 5770 5769 5769 5768 5768 5768 5768 5768
5768 5769 5771 5772 5773 5774 5775 5775 5775 5776 5776 5776 5776 5776 5775 5774 5774 5773 5772 5772 5772 5771 5771 5770 5769 5768 5767 5765 5765 5764 5764 5763 5762 5761 5761 5761 5761 5761 5760 5761 5760 5760 5760
5761 5762 5763 5764 5765 5766 5767 5767 5768 5768 5768 5768 5768 5768 5767 5767 5766 5766 5765 5765 5765 5764 5763 5763 5761 5760 5759 5758 5757 5757 5756 5755 5754 5754 5753 5753 5753 5753 5752 5752 5752 5752 5752
5753 5755 5756 5757 5757 5758 5759 5760 5760 5760 5760 5760 5760 5760 5759 5759 5759 5758 5758 5757 5757 5756 5756 5755 5754 5753 5752 5750 5749 5749 5748 5747 5746 5746 5745 5745 5744 5744 5744 5744 5744 5743 5743
5746 5748 5748 5749 5750 5751 5751 5752 5752 5752 5753 5753 5752 5752 5752 5752 5751 5751 5750 5750 5749 5749 5748 5747 5746 5745 5744 5743 5742 5741 5740 5739 5738 5737 5737 5737 5736 5736 5736 5735 5735 5735 5734
5739 5740 5741 5742 5742 5743 5744 5744 5745 5745 5745 5745 5745 5745 5745 5745 5744 5744 5743 5742 5741 5741 5740 5739 5738 5737 5736 5735 5734 5733 5732 5731 5730 5729 5729 5729 5728 5728 5727 5727 5727 5726 5726
5732 5733 5734 5734 5735 5735 5736 5737 5737 5738 5738 5738 5738 5738 5737 5737 5737 5736 5735 5734 5733 5732 5732 5731 5730 5729 5728 5727 5726 5725 5724 5723 5722 5722 5721 5720 5720 5719 5719 5719 5719 5718 5718
5724 5725 5726 5727 5728 5728 5729 5729 5730 5731 5730 5730 5730 5730 5730 5729 5729 5728 5727 5726 5725 5724 5723 5722 5721 5721 5720 5719 5718 5717 5716 5715 5714 5713 5713 5712 5711 5711 5711 5711 5710 5710 5709
5716 5717 5718 5719 5720 5720 5721 5722 5722 5723 5723 5722 5722 5722 5721 5721 5720 5719 5719 5718 5717 5716 5715 5714 5713 5712 5711 5711 5710 5709 5708 5707 5706 5705 5705 5704 5703 5703 5703 5703 5702 5701 5700
5707 5708 5709 5710 5711 5712 5713 5713 5714 5715 5714 5714 5714 5713 5713 5712 5712 5711 5710 5709 5708 5707 5707 5706 5705 5704 5703 5702 5701 5700 5700 5699 5698 5697 5697 5696 5696 5695 5694 5694 5693 5693 5692
5699 5700 5701 5702 5703 5703 5704 5705 5705 5706 5706 5706 5705 5705 5704 5704 5703 5702 5701 5700 5699 5699 5698 5697 5696 5695 5694 5694 5693 5692 5691 5691 5690 5689 5689 5688 5688 5687 5686 5686 5685 5684 5683
5690 5691 5692 5693 5694 5694 5695 5696 5697 5697 5697 5697 5697 5697 5696 5695 5695 5694 5693 5692 5691 5691 5690 5689 5688 5687 5686 5685 5685 5684 5683 5683 5682 5682 5681 5680 5679 5679 5678 5677 5677 5676 5675
5681 5682 5683 5684 5685 5686 5687 5687 5688 5688 5689 5689 5688 5688 5688 5687 5686 5686 5685 5684 5683 5682 5681 5680 5680 5679 5678 5677 5677 5676 5675 5675 5674 5674 5673 5672 5671 5670 5670 5669 5668 5667 5666
5673 5674 5675 5676 5677 5677 5678 5679 5679 5680 5680 5680 5680 5679 5679 5679 5678 5677 5676 5675 5675 5674 5673 5672 5672 5671 5670 5669 5668 5668 5667 5667 5666 5665 5664 5664 5663 5662 5661 5660 5659 5659 5658
5664 5665 5666 5667 5668 5669 5669 5670 5670 5671 5671 5671 5671 5671 5670 5670 5670 5669 5669 5668 5667 5666 5665 5665 5664 5663 5662 5661 5660 5659 5659 5658 5658 5657 5656 5655 5654 5654 5653 5652 5651 5650 5649
5655 5656 5657 5658 5659 5660 5661 5661 5662 5662 5663 5663 5663 5663 5662 5662 5661 5661 5660 5659 5659 5658 5657 5657 5656 5655 5654 5653 5652 5651 5650 5649 5649 5648 5647 5646 5646 5645 5644 5643 5642 5641 5640
5648 5648 5649 5650 5651 5652 5653 5653 5654 5654 5654 5654 5654 5654 5654 5653 5653 5652 5651 5651 5650 5650 5649 5648 5648 5647 5645 5644 5643 5642 5641 5640 5639 5639 5638 5637 5637 5636 5636 5635 5634 5633 5632
5641 5641 5641 5642 5643 5644 5645 5646 5646 5646 5647 5647 5647 5646 5646 5645 5644 5644 5643 5642 5642 5641 5640 5640 5639 5638 5637 5636 5635 5634 5632 5631 5630 5629 5629 5628 5628 5627 5626 5626 5625 5624 5622
5634 5634 5634 5635 5636 5637 5637 5638 5639 5639 5639 5639 5639 5638 5638 5637 5636 5635 5635 5634 5633 5632 5632 5631 5631 5630 5629 5627 5626 5624 5623 5622 5621 5620 5619 5618 5618 5618 5617 5616 5615 5615 5614
Wind_Speed
25 25 24 23 23 23 23 23 22 22 22 21 22 22 22 21 21 21 21 21 21 21 21 21 21 21 21 22 22 22 21 21 20 20 21 21 21 21 21 21 22 20 20
27 27 26 25 24 24 23 23 23 23 23 24 24 24 23 23 23 23 23 22 22 22 22 22 22 23 23 23 23 23 22 23 22 22 22 23 23 22 22 22 22 22 22
28 29 28 27 26 25 25 25 25 25 24 24 25 25 25 24 24 24 23 23 23 22 23 23 23 24 24 25 24 24 24 24 24 24 23 23 23 23 23 22 22 22 22
29 29 28 27 26 26 25 26 26 26 26 26 26 26 25 25 24 24 24 24 23 23 24 25 25 25 26 26 26 26 26 25 25 24 24 24 24 24 24 23 23 23 23
30 29 29 28 27 26 26 27 27 27 27 27 26 26 26 25 25 24 24 24 24 24 25 26 26 26 26 26 26 27 26 26 26 25 25 25 25 24 25 25 25 24 24
29 30 30 29 28 27 27 28 28 28 27 27 27 26 26 26 26 25 26 25 25 25 26 26 27 27 28 27 27 27 27 27 27 27 27 26 26 26 26 26 25 25 25
30 30 30 30 29 29 29 28 28 28 27 27 26 26 27 27 27 27 27 27 26 26 26 26 26 27 27 28 27 27 27 27 28 27 27 27 28 28 27 26 25 25 25
29 30 29 28 28 28 28 28 28 28 28 27 26 26 27 27 27 27 27 27 26 26 26 27 27 27 27 28 28 28 27 27 27 27 28 28 28 27 27 27 26 26 26
29 29 28 27 27 27 27 27 28 28 28 28 27 27 27 27 26 26 26 26 27 27 27 27 27 27 27 28 28 28 28 28 27 27 27 27 27 27 27 28 27 26 26
27 27 27 27 27 27 27 27 27 27 28 28 27 26 26 26 26 26 27 27 27 27 27 28 28 28 28 28 28 28 28 28 27 27 27 26 27 27 27 28 28 27 26
25 25 25 26 26 26 26 27 27 27 27 27 26 26 26 26 27 27 27 27 27 27 28 28 28 28 28 28 28 28 28 28 27 27 27 27 27 27 28 28 28 28 27
26 25 24 25 25 26 26 27 27 27 26 26 26 26 26 26 26 26 27 27 27 28 28 28 28 28 28 28 28 28 28 28 27 26 26 26 26 26 27 27 28 27 26
25 26 25 26 26 26 26 26 27 27 26 26 27 26 26 26 26 27 27 28 28 28 28 29 29 29 28 28 28 28 27 27 27 26 26 26 26 26 26 26 27 27 27
26 26 26 26 26 26 25 25 26 27 26 26 26 26 26 27 27 27 28 28 28 28 29 29 29 29 29 28 28 27 27 27 27 27 26 25 25 25 25 25 26 27 27
27 27 27 27 27 26 25 25 26 27 27 26 26 27 27 27 28 28 28 28 28 28 28 28 28 28 28 28 28 28 27 27 26 27 27 26 25 25 25 25 25 26 27
28 28 28 28 27 26 26 26 27 27 27 27 28 28 28 28 28 29 29 29 30 30 29 29 28 28 28 28 27 27 27 27 26 26 26 25 24 24 24 24 25 25 26
28 28 28 29 28 28 28 28 28 28 28 28 28 28 29 29 29 29 29 30 30 30 29 29 28 28 28 28 28 27 26 26 25 25 25 25 24 24 24 24 25 25 26
28 29 29 29 29 28 28 28 28 28 29 28 28 28 28 28 29 29 29 29 29 29 29 29 28 28 28 27 26 26 25 25 25 25 25 25 25 26 25 25 25 26 26
29 29 29 30 29 28 28 28 28 29 28 28 29 29 28 28 28 27 28 28 28 28 28 28 28 27 27 26 26 26 25 25 24 25 25 26 26 27 27 26 27 27 27
29 29 29 29 28 28 28 28 29 29 29 29 29 30 29 29 28 28 28 28 28 27 27 27 27 27 26 26 26 25 25 25 25 25 26 26 27 27 27 27 28 27 27
30 29 29 29 28 28 29 29 29 30 29 29 30 30 29 28 28 27 27 27 26 26 27 27 26 26 26 26 26 26 26 26 26 26 27 27 27 26 27 27 27 27 27
29 29 29 29 29 28 29 29 29 29 28 29 28 28 28 27 27 27 27 26 27 27 27 27 27 27 26 27 27 27 27 27 27 27 27 27 27 27 27 27 27 28 27
27 27 27 27 28 28 28 27 27 27 27 27 27 27 27 27 27 28 28 27 28 28 28 29 28 29 28 28 28 28 27 28 28 28 28 28 28 27 27 27 28 28 28
25 26 26 27 27 26 26 26 26 26 27 27 27 27 27 28 28 28 29 29 29 29 29 29 29 29 28 28 28 29 28 28 29 29 28 28 28 28 29 28 28 27 28
23 23 24 24 24 25 25 25 26 26 27 27 27 27 28 28 28 28 29 29 29 30 30 30 29 29 29 28 28 28 29 29 29 29 29 29 28 28 28 28 28 28 29
23 22 22 23 24 24 24 24 24 25 25 26 26 26 26 27 27 27 27 27 28 28 29 29 29 29 28 28 28 28 29 30 29 29 29 29 29 29 29 29 29 29 29
Wind_Direction
262 265 269 271 273 274 275 276 276 277 279 280 280 281 281 281 280 281 281 280 281 281 279 278 278 280 280 282 284 283 283 284 285 285 284 284 285 287 286 285 287 287 286
262 263 265 268 270 272 273 274 274 275 278 280 280 280 280 281 281 280 280 279 280 280 278 277 277 278 279 281 282 281 281 282 283 284 284 283 284 285 286 285 286 286 285
264 266 265 265 268 269 270 272 273 275 278 280 280 280 280 281 281 280 279 279 280 279 277 278 279 278 279 280 279 279 280 282 283 283 283 281 282 283 284 286 286 286 286
263 266 265 265 267 269 269 270 272 274 277 279 280 279 280 281 280 279 278 279 280 279 278 280 281 281 280 278 278 278 280 281 283 283 283 281 281 280 282 283 285 286 286
262 264 265 266 268 269 269 269 272 274 276 277 278 279 280 280 280 278 278 278 280 280 280 280 281 281 281 279 278 277 278 279 281 282 282 282 281 279 280 281 283 283 284
262 264 265 266 268 268 269 269 271 274 275 277 277 277 278 279 279 278 278 278 280 282 283 282 282 282 281 281 280 278 278 278 280 281 282 282 282 281 280 280 281 282 283
261 265 267 266 267 267 267 269 272 273 274 277 279 278 278 278 279 277 278 278 280 281 282 283 283 283 282 282 282 281 280 280 281 280 280 281 282 283 282 281 281 283 283
262 264 264 264 266 267 267 268 270 272 273 275 277 277 278 279 279 277 277 278 279 280 281 283 284 285 285 283 284 284 282 281 282 281 280 280 280 281 281 282 282 283 284
261 261 262 263 264 266 267 269 270 271 272 273 275 275 277 278 279 278 277 277 279 279 281 283 283 285 286 285 284 284 285 283 282 281 281 280 279 279 280 281 282 283 283
261 261 262 263 263 265 267 269 269 270 273 275 275 275 276 276 277 278 277 277 279 280 281 283 284 285 286 286 285 285 285 285 283 280 280 280 279 279 279 279 279 280 280
261 262 263 263 263 264 267 269 270 272 274 274 274 275 277 276 276 277 277 279 280 281 282 283 284 285 286 286 286 285 285 285 283 281 281 279 278 278 278 278 278 278 280
260 261 262 264 264 265 267 268 270 272 273 272 272 274 275 275 276 277 278 280 280 281 282 282 283 285 286 286 285 285 285 285 284 283 281 280 278 278 277 278 278 280 281
261 262 262 263 264 266 267 267 269 271 273 273 273 273 275 275 276 277 278 280 281 281 283 283 283 284 286 287 287 285 284 283 282 283 282 280 277 276 277 280 280 281 280
262 264 263 263 265 266 267 268 270 272 272 273 273 274 275 276 276 277 279 280 281 282 283 283 284 284 285 286 287 285 283 283 281 281 281 280 279 278 279 279 280 279 280
262 263 262 262 265 265 266 268 270 273 274 274 275 276 277 277 277 278 279 280 281 282 283 284 285 285 285 284 284 285 285 283 281 280 281 281 281 280 279 279 279 279 280
262 263 264 261 263 264 265 268 271 273 274 276 277 277 277 277 277 278 278 279 280 281 282 284 284 284 284 283 282 283 284 283 282 281 281 281 281 281 280 279 279 280 281
261 261 262 262 263 264 266 268 271 273 274 275 276 276 276 277 278 278 279 279 280 281 281 282 283 282 282 282 282 282 283 283 281 280 280 279 279 280 280 281 280 280 280
262 262 262 263 265 265 266 267 269 272 273 275 275 277 277 276 279 280 280 280 280 281 281 281 282 283 283 283 283 283 281 281 281 280 279 278 278 278 280 281 280 281 281
263 264 264 264 264 264 266 267 269 271 273 274 274 275 277 278 278 279 280 280 280 280 281 282 283 284 283 283 284 282 280 280 280 280 279 279 279 279 278 279 280 280 281
263 264 265 264 264 265 265 267 268 270 271 272 273 274 276 277 277 278 280 281 281 280 280 282 282 282 283 282 282 281 280 279 280 281 280 280 280 279 278 277 280 280 281
263 263 263 263 265 265 265 267 269 270 272 272 274 275 275 275 276 277 279 280 280 280 280 282 282 282 282 283 280 280 279 279 280 281 279 279 279 278 278 278 280 280 280
261 260 261 261 262 265 266 267 269 270 271 271 273 275 275 274 273 274 276 278 280 279 279 280 281 282 282 282 280 280 279 279 280 280 280 279 278 278 278 279 281 281 281
263 261 261 260 260 262 265 266 267 268 270 271 271 272 274 274 273 274 275 277 277 278 279 280 280 281 281 281 281 280 279 278 278 280 279 278 277 277 279 281 281 281 282
264 263 261 261 261 261 262 265 267 268 268 270 270 271 272 274 276 276 276 276 277 278 278 280 281 281 281 280 279 280 280 279 278 277 277 277 276 277 279 280 279 279 281
268 266 263 261 261 262 263 265 267 269 268 269 271 272 273 275 276 277 277 277 277 278 279 280 281 282 282 282 282 281 281 280 279 278 277 277 276 277 278 279 279 279 280
271 271 269 266 264 263 263 265 267 269 270 270 271 274 275 276 276 277 278 278 279 280 280 280 281 282 283 283 284 283 282 280 280 279 278 276 275 275 276 277 278 278 279